Lid_Strength_Index
3 3 3 3 3 2 3 3 3 3 3 3 3 2 2 2 2 5 9 5 3 -2 -2 4 4 4 4 6 4 4 10 12 10 10 9 6 7 5 4 6 5 5 5 4 2
3 3 3 3 3 3 3 3 3 3 3 3 3 2 2 2 3 6 3 -2 -3 -3 5 6 6 5 7 6 6 6 10 9 7 7 8 6 7 7 7 7 7 6 4 3 3
3 3 3 3 3 3 2 3 3 3 3 3 3 2 2 2 6 6 -3 -2 -2 -2 4 5 5 5 7 7 7 6 9 7 6 6 5 6 7 6 8 9 7 7 6 4 4
3 3 3 3 3 3 3 2 3 3 3 3 3 2 2 5 9 4 -4 -1 -2 1 4 5 5 6 8 8 7 8 6 6 5 5 6 7 6 7 7 7 5 4 4 4 4
3 3 3 3 3 3 3 3 3 3 3 3 2 2 4 8 7 4 -3 -1 1 4 6 5 6 7 8 7 7 7 6 6 5 5 5 5 7 7 7 5 4 4 4 4 4
3 3 3 3 3 3 3 3 3 3 3 2 2 2 5 10 5 2 1 3 4 5 5 5 5 5 6 7 8 6 6 6 5 6 6 7 7 7 6 4 5 5 5 4 4
3 3 3 3 3 3 3 3 3 3 3 2 2 2 5 8 4 5 6 6 4 5 5 4 4 6 6 7 5 5 7 7 6 6 7 6 9 9 6 5 6 5 5 4 4
3 3 4 4 4 4 4 4 4 3 2 2 2 5 9 5 4 4 5 5 5 4 4 4 4 5 7 6 6 8 7 10 7 7 6 7 13 8 5 6 6 5 5 5 4
4 4 4 4 4 4 4 4 3 2 2 2 6 7 9 2 6 5 5 6 7 5 5 3 5 7 7 9 10 9 11 10 9 6 7 8 11 7 5 6 6 6 5 5 4
4 4 4 4 4 4 5 4 3 3 2 2 3 9 8 8 6 5 5 5 8 6 5 6 8 9 10 11 13 11 11 9 11 8 7 9 10 8 6 6 6 6 5 5 5
3 4 4 4 4 5 6 7 8 9 9 10 11 8 7 6 5 6 5 7 9 8 10 8 10 11 10 9 9 9 10 9 8 7 8 9 10 8 7 6 7 6 6 5 5
3 4 4 4 4 5 7 10 8 7 11 8 6 7 6 7 8 7 7 8 9 10 9 9 10 8 8 8 8 9 10 10 8 7 8 9 10 8 7 7 6 6 6 5 5
3 4 4 4 5 6 8 7 6 7 11 9 7 7 7 6 8 8 7 8 9 10 10 10 9 7 8 9 10 10 10 10 10 8 8 9 11 10 7 6 6 5 6 5 6
3 3 4 5 6 7 7 4 6 7 14 11 10 7 7 6 9 5 6 7 9 9 9 10 8 8 9 10 10 12 8 7 8 11 13 9 16 12 10 9 7 7 7 6 5
3 3 4 5 8 7 6 4 4 8 18 8 10 6 7 9 9 8 6 7 8 8 10 10 11 11 10 9 8 9 7 8 8 12 13 12 15 13 10 10 9 8 7 6 5
3 4 4 6 8 6 4 5 7 13 16 10 8 9 10 11 10 8 8 7 7 8 9 9 9 10 9 8 8 7 9 10 11 13 15 13 13 14 12 11 8 8 7 6 6
4 5 5 5 8 5 6 7 13 16 9 10 11 10 12 12 11 10 11 12 12 13 13 10 9 10 9 11 9 10 13 16 15 16 16 13 13 12 9 8 8 8 7 6 5
5 5 6 5 6 6 6 11 15 10 11 9 9 11 12 11 12 11 12 12 10 11 13 13 13 12 10 10 11 11 12 15 17 17 15 12 16 12 8 7 7 7 6 6 5
5 7 6 5 5 5 8 14 13 11 8 9 10 13 13 11 11 11 12 12 10 9 11 14 12 10 10 9 8 10 13 11 14 15 15 15 13 10 8 9 8 8 7 6 6
7 8 7 3 4 5 10 12 11 9 8 9 13 11 13 12 12 12 12 10 9 7 9 11 13 11 10 9 8 9 9 13 14 17 20 17 16 14 11 11 9 8 8 7 5
8 7 5 3 5 8 12 12 9 8 8 10 12 12 11 12 12 12 12 10 8 8 9 11 12 11 12 13 12 10 12 12 13 13 18 19 17 11 10 10 9 8 7 7 6
9 11 5 4 9 10 11 10 8 8 8 9 10 10 11 9 11 12 11 10 7 7 10 10 13 15 14 11 9 10 11 12 13 15 14 16 16 9 9 8 8 8 7 6 5
11 10 5 7 12 12 11 9 8 8 9 10 11 10 9 10 12 11 10 7 7 9 10 10 14 16 14 13 10 11 10 11 11 13 15 18 16 9 8 8 7 8 7 6 5
10 10 7 8 9 10 11 9 9 7 8 9 10 10 10 11 11 10 9 8 8 8 5 7 13 15 15 14 11 12 10 11 12 14 15 15 14 11 10 9 8 7 7 6 6
10 10 7 11 9 8 10 8 9 9 8 8 10 10 10 12 11 11 9 9 7 7 8 10 12 12 11 10 10 10 10 10 12 12 13 13 13 11 9 9 8 7 6 6 6
10 9 8 9 8 9 10 10 9 8 9 9 10 9 9 11 10 10 10 11 10 10 11 11 12 11 13 10 9 10 9 10 10 10 11 11 12 8 8 7 8 7 7 7 6
8 7 9 10 9 10 10 10 9 8 8 6 7 7 9 8 8 7 8 9 9 10 11 11 10 12 14 11 11 13 10 9 10 9 10 12 11 8 9 8 8 7 7 7 6